Location: Curtidor
(10.3472°N, 67.2917°W)
Time: 04:58:19
(UTC+00:00)

ASTRO E2 - Pass Details

Date: 13 June 2024
Orbit: 419 x 420 km, 31.4° (Epoch: 21 July)

Event Time Altitude Azimuth Distance (km) Brightness Sun altitude
Rises 23:08:15 0° 246° (WSW) 2,406 6.8 -4.7°
Reaches altitude 10° 23:10:25 10° 251° (WSW) 1,539 5.9 -5.1°
Maximum altitude 23:13:52 54° 329° (NNW) 534 3.2 -5.9°
Drops below altitude 10° 23:17:20 10° 48° (NE) 1,537 4.9 -6.7°
Enters shadow 23:21:40 -7° 55° (NE) 3,273 6.5 -7.6°
